Location: Newark
(39.6105°N, 110.8138°W)
Time: 00:06:09
(UTC+00:00)

N. Korean satellite - Visible Passes

Search period start: 29 March 2020 00:00
Search period end: 08 April 2020 00:00
Orbit: 455 x 506 km, 97.2° (Epoch: 28 March)

Date Brightness Start Highest point End Pass type
(mag) Time Alt. Az. Time Alt. Az. Time Alt. Az.
30 Mar 9.5 12:24:38 10° NE 12:27:17 20° E 12:29:55 10° SE visible
03 Apr 9.6 12:16:00 10° NE 12:18:10 16° E 12:20:20 10° SE visible
06 Apr 9.1 12:31:51 10° NE 12:34:47 26° E 12:37:41 10° SSE visible
07 Apr 9.9 12:07:34 10° ENE 12:09:01 12° E 12:10:27 10° ESE visible
